Regional Weather Roundup
Issued by NWS

Home | Current Version | Previous Version | Graphics & Text | Print | Product List | Glossary On
Versions: 1 2 3 4 5 6 7 8 9 10 11 12 13 14 15 16 17 18 19 20 21 22 23 24 25 26 27 28 29 30 31 32 33 34 35 36 37 38 39 40 41 42 43 44 45 46 47 48 49 50
000
ASUS43 KLMK 272202
RWRKY
KENTUCKY REGIONAL WEATHER ROUNDUP
NATIONAL WEATHER SERVICE LOUISVILLE KY
600 PM EDT MON JUL 27 2015

NOTE "FAIR" INDICATES FEW OR NO CLOUDS BELOW 12,000 FEET
WITH NO SIGNIFICANT WEATHER AND/OR OBSTRUCTIONS TO VISIBILITY.

KYZ001>023-026-027-061>063-070>075-272300-
WESTERN AND SOUTH CENTRAL KENTUCKY

CITY           SKY/WX    TMP DP  RH WIND       PRES   REMARKS
PADUCAH        FAIR      90  77  65 S7        29.91S HX 103
HENDERSON      FAIR      88  77  70 CALM      29.90F HX 100
OWENSBORO      FAIR      91  76  61 W5        29.92F HX 102
HOPKINSVILLE   FAIR      91  77  63 SW12      29.92F HX 103
BOWLING GREEN  FAIR      88  74  63 SE6       29.94F HX  96
GLASGOW        NOT AVBL
$$

KYZ024-025-028>034-038-045-046-053-272300-
NORTH CENTRAL KENTUCKY

CITY           SKY/WX    TMP DP  RH WIND       PRES   REMARKS
LOUISVILLE/SDF FAIR      90  73  57 VRB5      29.91F HX  98
LOUISVILLE/LOU PTSUNNY   88  73  61 VRB5      29.93F HX  95
FORT KNOX      FAIR      88  75  65 S5        29.93F HX  97
$$

KYZ035>037-039>044-047>052-055>060-089>105-272300-
NORTHEAST KENTUCKY

CITY           SKY/WX    TMP DP  RH WIND       PRES   REMARKS
LEXINGTON      FAIR      87  72  60 W7        29.96F HX  93
COVINGTON      FAIR      87  72  60 NE7       29.95F HX  93
FRANKFORT      FAIR      87  71  58 VRB6      29.94F HX  93
$$

KYZ054-064>069-076>088-106>120-272300-
SOUTHEAST KENTUCKY

CITY           SKY/WX    TMP DP  RH WIND       PRES   REMARKS
JACKSON        CLOUDY    78  74  87 N5        30.00R FOG
LONDON         PTSUNNY   88  70  55 W6        29.99S HX  93
SOMERSET       NOT AVBL
MIDDLESBORO    FAIR      86  74  67 CALM      29.99S HX  94
MONTICELLO     FAIR      86  76  71 CALM      30.00F HX  96
$$




USA.gov is the U.S. government's official web portal to all federal, state and local government web resources and services.